Hovedside
METAR-TAF:

METAR-TAF

Lufthavner :

Linköping, Sverige

Flystasjon

breddegrad: 58-24N, lengdegrad: 015-31E, høyde over havet: 93 m

Gjeldene værobservasjon

Denne rapporten ble laget for 44 minutter siden, klokken 21:50 UTC
Vind 3 kt fra Øst-nordøst
Temperatur 16°C
Luftfuktighet 72%
Trykk 1013 hPa
Sikt 10 km eller mer

METAR: ESCF 242150Z AUTO 07003KT 9999 SCT054/// 16/11 Q1013

Tid: 00:34 (22:34 UTC)


TAF: fraværende

Værobservasjoner og værvarsel for over 4000 flyplasser (METAR- og TAF-rapporter).

Tilgjengelige stasjoner er representert av de røde og gule prikkene på kartet.

Hold musepekeren over prikken for å se navnet på stasjonen.

Klikk så for å se værobservasjoner og -varsler.

For å forandre kartet kan du klikke på den grønne knappen med svart kryss for å zoome inn, på den grønne knappen med strek for å zoome ut, eller på de grønne pilene for å se tilstøtende kart.


METAR-TAF: